Weather History for Owensboro, KY

Change the Weather History Date:

Sunday, February 23, 2014

  Actual Average Record
Temperature  
Mean Temperature 36 °F -  
Max Temperature 43 °F 51 °F 79 °F (1982)
Min Temperature 27 °F 30 °F 6 °F (1968)
Degree Days  
Heating Degree Days 30    
Moisture  
Dew Point 29 °F    
Average Humidity 75    
Maximum Humidity 89    
Minimum Humidity 59    
Precipitation  
Precipitation 0.00 in - - ()
Sea Level Pressure  
Sea Level Pressure 30.14 in    
Wind  
Wind Speed 9 mph (NNE)    
Max Wind Speed 17 mph    
Max Gust Speed 23 mph    
Visibility 10 miles    
Events      
Averages and records for this station are not official NWS values.
T = Trace of Precipitation, MM = Missing Value Source: NWS Daily Summary

Daily Weather History Graph

Daily Weather History Graph

Search for Another Location

Airport:

Trip Planner

Search our weather history database for the weather conditions in past years. The results will help you decide how hot, cold, wet, or windy it might be!

Date:

Astronomy

Feb. 23, 2014 Rise Set
Actual Time 6:28 AM CST 5:36 PM CST
Civil Twilight 6:01 AM CST 6:02 PM CST
Nautical Twilight 5:31 AM CST 6:33 PM CST
Astronomical Twilight 5:00 AM CST 7:03 PM CST
Moon 1:22 AM CST (2/23) 11:41 AM CST (2/23)
Length of Visible Light 12h 01m
Length of Day
11h 07m
Last Quarter, 38% of the Moon is Illuminated
Feb 23
Last Quarter
Mar 1
New
Mar 8
First Quarter
Mar 16
Full
Mar 23
Last Quarter

Hourly Weather History & Observations

Time (CST) Temp. Windchill Dew Point Humidity Pressure Visibility Wind Dir Wind Speed Gust Speed Precip Events Conditions
12:56 AM 41.0 °F 35.8 °F 32.9 °F 73% 30.01 in 10.0 mi NNE 8.1 mph - N/A   Clear
1:56 AM 38.8 °F 33.2 °F 31.1 °F 74% 30.02 in 10.0 mi ENE 8.1 mph - N/A   Clear
2:56 AM 36.9 °F - 32.0 °F 83% 30.03 in 10.0 mi Calm Calm - N/A   Clear
3:56 AM 36.9 °F 30.7 °F 32.0 °F 83% 30.02 in 10.0 mi ENE 8.1 mph - N/A   Scattered Clouds
4:56 AM 34.9 °F 29.9 °F 32.0 °F 89% 30.01 in 10.0 mi East 5.8 mph - N/A   Clear
5:56 AM 36.0 °F 31.1 °F 31.1 °F 82% 30.03 in 10.0 mi North 5.8 mph - N/A   Clear
6:56 AM 36.0 °F 30.3 °F 32.0 °F 86% 30.05 in 10.0 mi North 6.9 mph - N/A   Clear
7:56 AM 36.9 °F 29.1 °F 32.9 °F 86% 30.11 in 10.0 mi NNE 11.5 mph 17.3 mph N/A   Mostly Cloudy
8:56 AM 37.9 °F 28.5 °F 34.0 °F 86% 30.12 in 10.0 mi NNE 17.3 mph - N/A   Mostly Cloudy
9:56 AM 39.9 °F 31.8 °F 34.9 °F 82% 30.12 in 10.0 mi NNE 15.0 mph 21.9 mph N/A   Mostly Cloudy
10:09 AM 39.2 °F 31.2 °F 35.6 °F 87% 30.11 in 10.0 mi NNE 13.8 mph 23.0 mph N/A   Mostly Cloudy
10:56 AM 41.0 °F 32.8 °F 34.9 °F 79% 30.12 in 10.0 mi NNE 16.1 mph 20.7 mph N/A   Mostly Cloudy
11:56 AM 43.0 °F 35.7 °F 36.0 °F 76% 30.12 in 10.0 mi NE 15.0 mph 20.7 mph N/A   Mostly Cloudy
12:56 PM 43.0 °F 37.2 °F 36.0 °F 76% 30.13 in 10.0 mi NE 10.4 mph 19.6 mph 0.00 in   Mostly Cloudy
1:56 PM 41.9 °F 35.0 °F 34.0 °F 73% 30.14 in 10.0 mi North 12.7 mph 19.6 mph N/A   Mostly Cloudy
2:56 PM 38.8 °F 31.6 °F 32.0 °F 76% 30.15 in 10.0 mi NNE 11.5 mph 19.6 mph N/A   Scattered Clouds
3:56 PM 36.9 °F 29.1 °F 30.0 °F 76% 30.17 in 10.0 mi North 11.5 mph 17.3 mph N/A   Overcast
4:56 PM 36.9 °F 29.6 °F 30.0 °F 76% 30.19 in 10.0 mi NNE 10.4 mph - N/A   Scattered Clouds
5:56 PM 34.9 °F 28.3 °F 23.0 °F 62% 30.22 in 10.0 mi North 8.1 mph - N/A   Clear
6:56 PM 32.9 °F 25.9 °F 20.1 °F 59% 30.22 in 10.0 mi North 8.1 mph - N/A   Clear
7:56 PM 31.1 °F 23.7 °F 19.0 °F 61% 30.25 in 10.0 mi NNW 8.1 mph - N/A   Clear
8:56 PM 30.0 °F 21.1 °F 18.1 °F 61% 30.27 in 10.0 mi North 10.4 mph - N/A   Clear
9:56 PM 29.1 °F 20.6 °F 17.1 °F 61% 30.29 in 10.0 mi North 9.2 mph - N/A   Clear
10:56 PM 28.0 °F 20.8 °F 16.2 °F 61% 30.29 in 10.0 mi North 6.9 mph - N/A   Clear
11:56 PM 27.1 °F 19.7 °F 18.1 °F 69% 30.30 in 10.0 mi North 6.9 mph - N/A   Clear